+ View the NASA Portal
+ Center for Near-Earth Object Studies
IMPORTANT:
The SSD Announcement email list is now available. Major changes are coming in the near future, including possible hostname and/or URL changes. To be notified of such changes, subscribe to this email list.
Please visit
this page
for more details.
Don't show this message again
JPL Small-Body Database Browser
Search:
[
help
]
243221 (2007 VY29)
Classification:
Main-belt Asteroid
SPK-ID:
2243221
[
Ephemeris
|
Orbit Diagram
|
Orbital Elements
|
Mission Design
|
Physical Parameters
|
Discovery Circumstances
|
Close-Approach Data
]
[ show orbit diagram ]
Orbital Elements at Epoch 2458600.5 (2019-Apr-27.0) TDB
Reference:
JPL 11
(heliocentric ecliptic J2000)
Element
Value
Uncertainty (1-sigma)
Units
e
.02051062973246977
5.2248e-08
a
2.659082033659209
2.6574e-08
au
q
2.604542586638562
1.3677e-07
au
i
1.928819569763244
5.4482e-06
deg
node
224.8056773879552
0.00018826
deg
peri
189.5109948277055
0.00024607
deg
M
208.6184417099846
0.00015837
deg
t
p
2459266.488148922812
(2021-Feb-20.98814892)
0.00069668
TDB
period
1583.784288657477
4.34
2.3741e-05
6.5e-08
d
yr
n
.2273036818070474
3.4073e-09
deg/d
Q
2.713621480679856
2.7119e-08
au
Orbit Determination Parameters
# obs. used (total)
176
data-arc span
8540 days (23.38 yr)
first obs. used
1994-10-31
last obs. used
2018-03-19
planetary ephem.
DE431
SB-pert. ephem.
SB431-N16
condition code
0
norm. resid. RMS
.61693
source
ORB
producer
Otto Matic
solution date
2019-Jul-14 10:53:26
Additional Information
Earth MOID
= 1.6139 au
Jupiter MOID
= 2.34061 au
T_jup
= 3.385
[ show covariance matrix ]
[
Ephemeris
|
Orbit Diagram
|
Orbital Elements
|
Mission Design
|
Physical Parameters
|
Discovery Circumstances
|
Close-Approach Data
]
Physical Parameter Table
Parameter
Symbol
Value
Units
Sigma
Reference
Notes
absolute magnitude
H
16.9
n/a
MPO418300
243221 (2007 VY29)
Discovered 2007-Nov-02 by Spacewatch at Kitt Peak
Reference:
20100626/Numbers.arc
Last Updated:
2010-06-28
[ show close-approach data ]
[
Ephemeris
|
Orbit Diagram
|
Orbital Elements
|
Mission Design
|
Physical Parameters
|
Discovery Circumstances
|
Close-Approach Data
]
2019-Dec-07 20:28 UT
(server date/time)
Site Manager:
Ryan S. Park
Webmaster
:
Alan B. Chamberlin